#datetime,building,power
2022-10-02T00:00:00,pkn,4.80
2022-10-02T00:02:00,pkn,9.60
2022-10-02T00:03:00,pkn,8.40
2022-10-02T00:04:00,pkn,3.60
2022-10-02T00:06:00,pkn,1.20
2022-10-02T00:07:00,pkn,1.20
2022-10-02T00:08:00,pkn,1.20
2022-10-02T00:10:00,pkn,1.20
2022-10-02T00:11:00,pkn,1.20
2022-10-02T00:13:00,pkn,1.20
2022-10-02T00:14:00,pkn,1.20
2022-10-02T00:15:00,pkn,1.20
2022-10-02T00:17:00,pkn,1.20
2022-10-02T00:20:00,pkn,2.40
2022-10-02T00:22:00,pkn,1.20
2022-10-02T00:24:00,pkn,1.20
2022-10-02T00:26:00,pkn,2.40
2022-10-02T00:28:00,pkn,1.20
2022-10-02T00:30:00,pkn,1.20
2022-10-02T00:31:00,pkn,1.20
2022-10-02T00:33:00,pkn,1.20
2022-10-02T00:34:00,pkn,1.20
2022-10-02T00:37:00,pkn,2.40
2022-10-02T00:38:00,pkn,1.20
2022-10-02T00:40:00,pkn,1.20
2022-10-02T00:42:00,pkn,8.40
2022-10-02T00:44:00,pkn,10.80
2022-10-02T00:45:00,pkn,3.60
2022-10-02T00:46:00,pkn,7.20
2022-10-02T00:48:00,pkn,9.60
2022-10-02T00:49:00,pkn,1.20
2022-10-02T00:51:00,pkn,1.20
2022-10-02T00:53:00,pkn,2.40
2022-10-02T00:54:00,pkn,1.20
2022-10-02T00:56:00,pkn,2.40
2022-10-02T00:58:00,pkn,2.40
2022-10-02T00:59:00,pkn,1.20
2022-10-02T01:01:00,pkn,1.20
2022-10-02T01:03:00,pkn,2.40
2022-10-02T01:05:00,pkn,2.40
2022-10-02T01:06:00,pkn,2.40
2022-10-02T01:08:00,pkn,2.40
2022-10-02T01:10:00,pkn,2.40
2022-10-02T01:11:00,pkn,2.40
2022-10-02T01:13:00,pkn,1.20
2022-10-02T01:15:00,pkn,4.80
2022-10-02T01:17:00,pkn,9.60
2022-10-02T01:18:00,pkn,4.80
2022-10-02T01:20:00,pkn,10.80
2022-10-02T01:22:00,pkn,9.60
2022-10-02T01:24:00,pkn,6.00
2022-10-02T01:27:00,pkn,2.40
2022-10-02T01:29:00,pkn,2.40
2022-10-02T01:31:00,pkn,2.40
2022-10-02T01:33:00,pkn,1.20
2022-10-02T01:34:00,pkn,1.20
2022-10-02T01:36:00,pkn,2.40
2022-10-02T01:38:00,pkn,1.20
2022-10-02T01:40:00,pkn,1.20
2022-10-02T01:41:00,pkn,1.20
2022-10-02T01:43:00,pkn,1.20
2022-10-02T01:44:00,pkn,1.20
2022-10-02T01:46:00,pkn,1.20
2022-10-02T01:47:00,pkn,1.20
2022-10-02T01:49:00,pkn,1.20
2022-10-02T01:51:00,pkn,1.20
2022-10-02T01:53:00,pkn,2.40
2022-10-02T01:55:00,pkn,1.20
2022-10-02T01:57:00,pkn,2.40
2022-10-02T01:59:00,pkn,1.20
2022-10-02T02:01:00,pkn,3.60
2022-10-02T02:03:00,pkn,9.60
2022-10-02T02:04:00,pkn,4.80
2022-10-02T02:06:00,pkn,9.60
2022-10-02T02:08:00,pkn,9.60
2022-10-02T02:10:00,pkn,1.20
2022-10-02T02:11:00,pkn,1.20
2022-10-02T02:13:00,pkn,1.20
2022-10-02T02:15:00,pkn,1.20
2022-10-02T02:16:00,pkn,1.20
2022-10-02T02:19:00,pkn,2.40
2022-10-02T02:21:00,pkn,2.40
2022-10-02T02:23:00,pkn,1.20
2022-10-02T02:25:00,pkn,1.20
2022-10-02T02:26:00,pkn,1.20
2022-10-02T02:28:00,pkn,2.40
2022-10-02T02:30:00,pkn,1.20
2022-10-02T02:31:00,pkn,1.20
2022-10-02T02:32:00,pkn,1.20
2022-10-02T02:34:00,pkn,1.20
2022-10-02T02:36:00,pkn,2.40
2022-10-02T02:38:00,pkn,2.40
2022-10-02T02:40:00,pkn,1.20
2022-10-02T02:42:00,pkn,2.40
2022-10-02T02:45:00,pkn,2.40
2022-10-02T02:47:00,pkn,1.20
2022-10-02T02:48:00,pkn,1.20
2022-10-02T02:50:00,pkn,1.20
2022-10-02T02:53:00,pkn,1.20
2022-10-02T02:55:00,pkn,2.40
2022-10-02T02:57:00,pkn,6.00
2022-10-02T02:58:00,pkn,3.60
2022-10-02T03:00:00,pkn,10.80
2022-10-02T03:02:00,pkn,9.60
2022-10-02T03:04:00,pkn,7.20
2022-10-02T03:06:00,pkn,1.20
2022-10-02T03:08:00,pkn,1.20
2022-10-02T03:09:00,pkn,1.20
2022-10-02T03:12:00,pkn,2.40
2022-10-02T03:15:00,pkn,2.40
2022-10-02T03:17:00,pkn,1.20
2022-10-02T03:19:00,pkn,1.20
2022-10-02T03:21:00,pkn,1.20
2022-10-02T03:22:00,pkn,1.20
2022-10-02T03:23:00,pkn,1.20
2022-10-02T03:25:00,pkn,2.40
2022-10-02T03:27:00,pkn,2.40
2022-10-02T03:28:00,pkn,1.20
2022-10-02T03:30:00,pkn,1.20
2022-10-02T03:31:00,pkn,2.40
2022-10-02T03:33:00,pkn,2.40
2022-10-02T03:36:00,pkn,2.40
2022-10-02T03:38:00,pkn,2.40
2022-10-02T03:39:00,pkn,1.20
2022-10-02T03:41:00,pkn,1.20
2022-10-02T03:42:00,pkn,1.20
2022-10-02T03:43:00,pkn,1.20
2022-10-02T03:45:00,pkn,1.20
2022-10-02T03:47:00,pkn,2.40
2022-10-02T03:50:00,pkn,2.40
2022-10-02T03:53:00,pkn,2.40
2022-10-02T03:54:00,pkn,1.20
2022-10-02T03:57:00,pkn,2.40
2022-10-02T03:59:00,pkn,2.40
2022-10-02T04:01:00,pkn,1.20
2022-10-02T04:03:00,pkn,1.20
2022-10-02T04:05:00,pkn,2.40
2022-10-02T04:08:00,pkn,9.60
2022-10-02T04:10:00,pkn,9.60
2022-10-02T04:12:00,pkn,9.60
2022-10-02T04:13:00,pkn,4.80
2022-10-02T04:15:00,pkn,4.80
2022-10-02T04:16:00,pkn,1.20
2022-10-02T04:18:00,pkn,1.20
2022-10-02T04:20:00,pkn,1.20
2022-10-02T04:22:00,pkn,1.20
2022-10-02T04:24:00,pkn,1.20
2022-10-02T04:26:00,pkn,2.40
2022-10-02T04:29:00,pkn,2.40
2022-10-02T04:31:00,pkn,1.20
2022-10-02T04:32:00,pkn,1.20
2022-10-02T04:34:00,pkn,2.40
2022-10-02T04:36:00,pkn,2.40
2022-10-02T04:38:00,pkn,2.40
2022-10-02T04:39:00,pkn,1.20
2022-10-02T04:41:00,pkn,2.40
2022-10-02T04:43:00,pkn,1.20
2022-10-02T04:45:00,pkn,1.20
2022-10-02T04:46:00,pkn,1.20
2022-10-02T04:48:00,pkn,1.20
2022-10-02T04:50:00,pkn,1.20
2022-10-02T04:52:00,pkn,2.40
2022-10-02T04:54:00,pkn,1.20
2022-10-02T04:56:00,pkn,2.40
2022-10-02T04:58:00,pkn,1.20
2022-10-02T05:00:00,pkn,1.20
2022-10-02T05:02:00,pkn,2.40
2022-10-02T05:05:00,pkn,2.40
2022-10-02T05:07:00,pkn,1.20
2022-10-02T05:09:00,pkn,2.40
2022-10-02T05:11:00,pkn,1.20
2022-10-02T05:13:00,pkn,2.40
2022-10-02T05:15:00,pkn,1.20
2022-10-02T05:17:00,pkn,2.40
2022-10-02T05:19:00,pkn,1.20
2022-10-02T05:21:00,pkn,1.20
2022-10-02T05:22:00,pkn,1.20
2022-10-02T05:24:00,pkn,1.20
2022-10-02T05:26:00,pkn,2.40
2022-10-02T05:28:00,pkn,1.20
2022-10-02T05:31:00,pkn,2.40
2022-10-02T05:34:00,pkn,1.20
2022-10-02T05:36:00,pkn,2.40
2022-10-02T05:38:00,pkn,1.20
2022-10-02T05:40:00,pkn,9.60
2022-10-02T05:41:00,pkn,3.60
2022-10-02T05:43:00,pkn,9.60
2022-10-02T05:45:00,pkn,10.80
2022-10-02T05:46:00,pkn,3.60
2022-10-02T05:48:00,pkn,2.40
2022-10-02T05:50:00,pkn,1.20
2022-10-02T05:53:00,pkn,2.40
2022-10-02T05:55:00,pkn,1.20
2022-10-02T05:56:00,pkn,1.20
2022-10-02T05:58:00,pkn,1.20
2022-10-02T06:00:00,pkn,1.20
2022-10-02T06:02:00,pkn,1.20
2022-10-02T06:03:00,pkn,1.20
2022-10-02T06:04:00,pkn,1.20
2022-10-02T06:05:00,pkn,1.20
2022-10-02T06:07:00,pkn,1.20
2022-10-02T06:09:00,pkn,1.20
2022-10-02T06:10:00,pkn,1.20
2022-10-02T06:12:00,pkn,1.20
2022-10-02T06:14:00,pkn,2.40
2022-10-02T06:16:00,pkn,1.20
2022-10-02T06:18:00,pkn,1.20
2022-10-02T06:20:00,pkn,2.40
2022-10-02T06:22:00,pkn,1.20
2022-10-02T06:24:00,pkn,1.20
2022-10-02T06:25:00,pkn,1.20
2022-10-02T06:27:00,pkn,1.20
2022-10-02T06:30:00,pkn,2.40
2022-10-02T06:32:00,pkn,1.20
2022-10-02T06:34:00,pkn,1.20
2022-10-02T06:36:00,pkn,1.20
2022-10-02T06:37:00,pkn,1.20
2022-10-02T06:39:00,pkn,1.20
2022-10-02T06:41:00,pkn,2.40
2022-10-02T06:44:00,pkn,2.40
2022-10-02T06:46:00,pkn,1.20
2022-10-02T06:47:00,pkn,1.20
2022-10-02T06:48:00,pkn,1.20
2022-10-02T06:49:00,pkn,1.20
2022-10-02T06:51:00,pkn,1.20
2022-10-02T06:53:00,pkn,2.40
2022-10-02T06:54:00,pkn,1.20
2022-10-02T06:56:00,pkn,1.20
2022-10-02T06:58:00,pkn,1.20
2022-10-02T07:00:00,pkn,2.40
2022-10-02T07:02:00,pkn,1.20
2022-10-02T07:04:00,pkn,1.20
2022-10-02T07:05:00,pkn,1.20
2022-10-02T07:06:00,pkn,1.20
2022-10-02T07:08:00,pkn,1.20
2022-10-02T07:10:00,pkn,2.40
2022-10-02T07:12:00,pkn,1.20
2022-10-02T07:14:00,pkn,1.20
2022-10-02T07:16:00,pkn,2.40
2022-10-02T07:18:00,pkn,1.20
2022-10-02T07:21:00,pkn,2.40
2022-10-02T07:23:00,pkn,1.20
2022-10-02T07:25:00,pkn,1.20
2022-10-02T07:27:00,pkn,1.20
2022-10-02T07:29:00,pkn,2.40
2022-10-02T07:32:00,pkn,1.20
2022-10-02T07:33:00,pkn,1.20
2022-10-02T07:35:00,pkn,1.20
2022-10-02T07:37:00,pkn,8.40
2022-10-02T07:38:00,pkn,4.80
2022-10-02T07:40:00,pkn,9.60
2022-10-02T07:41:00,pkn,6.00
2022-10-02T07:43:00,pkn,8.40
2022-10-02T07:45:00,pkn,8.40
2022-10-02T07:47:00,pkn,2.40
2022-10-02T07:49:00,pkn,1.20
2022-10-02T07:51:00,pkn,1.20
2022-10-02T07:53:00,pkn,2.40
2022-10-02T07:55:00,pkn,1.20
2022-10-02T07:57:00,pkn,1.20
2022-10-02T07:59:00,pkn,1.20
2022-10-02T08:01:00,pkn,2.40
2022-10-02T08:02:00,pkn,1.20
2022-10-02T08:04:00,pkn,1.20
2022-10-02T08:07:00,pkn,2.40
2022-10-02T08:09:00,pkn,1.20
2022-10-02T08:11:00,pkn,2.40
2022-10-02T08:13:00,pkn,1.20
2022-10-02T08:14:00,pkn,1.20
2022-10-02T08:16:00,pkn,8.40
2022-10-02T08:17:00,pkn,6.00
2022-10-02T08:19:00,pkn,9.60
2022-10-02T08:21:00,pkn,8.40
2022-10-02T08:23:00,pkn,9.60
2022-10-02T08:25:00,pkn,2.40
2022-10-02T08:28:00,pkn,2.40
2022-10-02T08:30:00,pkn,1.20
2022-10-02T08:32:00,pkn,1.20
2022-10-02T08:34:00,pkn,2.40
2022-10-02T08:36:00,pkn,2.40
2022-10-02T08:37:00,pkn,1.20
2022-10-02T08:39:00,pkn,1.20
2022-10-02T08:41:00,pkn,1.20
2022-10-02T08:43:00,pkn,1.20
2022-10-02T08:45:00,pkn,1.20
2022-10-02T08:46:00,pkn,1.20
2022-10-02T08:48:00,pkn,1.20
2022-10-02T08:50:00,pkn,2.40
2022-10-02T08:53:00,pkn,2.40
2022-10-02T08:55:00,pkn,6.00
2022-10-02T08:56:00,pkn,6.00
2022-10-02T08:58:00,pkn,8.40
2022-10-02T09:00:00,pkn,9.60
2022-10-02T09:01:00,pkn,6.00
2022-10-02T09:03:00,pkn,8.40
2022-10-02T09:05:00,pkn,6.00
2022-10-02T09:07:00,pkn,1.20
2022-10-02T09:09:00,pkn,1.20
2022-10-02T09:10:00,pkn,1.20
2022-10-02T09:11:00,pkn,1.20
2022-10-02T09:13:00,pkn,1.20
2022-10-02T09:15:00,pkn,1.20
2022-10-02T09:17:00,pkn,1.20
2022-10-02T09:18:00,pkn,1.20
2022-10-02T09:20:00,pkn,1.20
2022-10-02T09:21:00,pkn,1.20
2022-10-02T09:23:00,pkn,1.20
2022-10-02T09:25:00,pkn,1.20
2022-10-02T09:27:00,pkn,1.20
2022-10-02T09:29:00,pkn,1.20
2022-10-02T09:31:00,pkn,1.20
2022-10-02T09:33:00,pkn,1.20
2022-10-02T09:34:00,pkn,1.20
2022-10-02T09:36:00,pkn,1.20
2022-10-02T09:38:00,pkn,2.40
2022-10-02T09:40:00,pkn,1.20
2022-10-02T09:42:00,pkn,2.40
2022-10-02T09:43:00,pkn,6.00
2022-10-02T09:45:00,pkn,9.60
2022-10-02T09:47:00,pkn,9.60
2022-10-02T09:48:00,pkn,4.80
2022-10-02T09:50:00,pkn,9.60
2022-10-02T09:52:00,pkn,9.60
2022-10-02T09:54:00,pkn,9.60
2022-10-02T09:56:00,pkn,9.60
2022-10-02T09:57:00,pkn,4.80
2022-10-02T09:59:00,pkn,9.60
2022-10-02T10:00:00,pkn,4.80
2022-10-02T10:02:00,pkn,9.60
2022-10-02T10:03:00,pkn,3.60
2022-10-02T10:05:00,pkn,9.60
2022-10-02T10:07:00,pkn,8.40
2022-10-02T10:08:00,pkn,6.00
2022-10-02T10:09:00,pkn,3.60
2022-10-02T10:11:00,pkn,9.60
2022-10-02T10:12:00,pkn,4.80
2022-10-02T10:14:00,pkn,9.60
2022-10-02T10:15:00,pkn,1.20
2022-10-02T10:17:00,pkn,1.20
2022-10-02T10:19:00,pkn,1.20
2022-10-02T10:22:00,pkn,1.20
2022-10-02T10:25:00,pkn,1.20
2022-10-02T10:26:00,pkn,1.20
2022-10-02T10:28:00,pkn,1.20
2022-10-02T10:31:00,pkn,7.20
2022-10-02T10:33:00,pkn,9.60
2022-10-02T10:35:00,pkn,8.40
2022-10-02T10:37:00,pkn,8.40
2022-10-02T10:39:00,pkn,9.60
2022-10-02T10:41:00,pkn,9.60
2022-10-02T10:42:00,pkn,3.60
2022-10-02T10:44:00,pkn,2.40
2022-10-02T10:45:00,pkn,1.20
2022-10-02T10:48:00,pkn,1.20
2022-10-02T10:51:00,pkn,1.20
2022-10-02T10:54:00,pkn,1.20
2022-10-02T10:56:00,pkn,3.60
2022-10-02T10:58:00,pkn,2.40
2022-10-02T11:00:00,pkn,3.60
2022-10-02T11:01:00,pkn,1.20
2022-10-02T11:03:00,pkn,4.80
2022-10-02T11:05:00,pkn,12.00
2022-10-02T11:06:00,pkn,4.80
2022-10-02T11:08:00,pkn,10.80
2022-10-02T11:09:00,pkn,4.80
2022-10-02T11:11:00,pkn,9.60
2022-10-02T11:12:00,pkn,4.80
2022-10-02T11:14:00,pkn,12.00
2022-10-02T11:15:00,pkn,6.00
2022-10-02T11:17:00,pkn,9.60
2022-10-02T11:19:00,pkn,2.40
2022-10-02T11:20:00,pkn,1.20
2022-10-02T11:22:00,pkn,4.80
2022-10-02T11:23:00,pkn,2.40
2022-10-02T11:25:00,pkn,4.80
2022-10-02T11:27:00,pkn,3.60
2022-10-02T11:28:00,pkn,1.20
2022-10-02T11:30:00,pkn,1.20
2022-10-02T11:33:00,pkn,1.20
2022-10-02T11:35:00,pkn,3.60
2022-10-02T11:37:00,pkn,8.40
2022-10-02T11:38:00,pkn,4.80
2022-10-02T11:39:00,pkn,3.60
2022-10-02T11:40:00,pkn,6.00
2022-10-02T11:42:00,pkn,8.40
2022-10-02T11:43:00,pkn,4.80
2022-10-02T11:45:00,pkn,8.40
2022-10-02T11:47:00,pkn,3.60
2022-10-02T11:51:00,pkn,1.20
2022-10-02T11:53:00,pkn,1.20
2022-10-02T11:54:00,pkn,1.20
2022-10-02T11:57:00,pkn,1.20
2022-10-02T11:59:00,pkn,1.20
2022-10-02T12:02:00,pkn,1.20
2022-10-02T12:05:00,pkn,1.20
2022-10-02T12:07:00,pkn,1.20
2022-10-02T12:09:00,pkn,2.40
2022-10-02T12:11:00,pkn,9.60
2022-10-02T12:12:00,pkn,4.80
2022-10-02T12:14:00,pkn,9.60
2022-10-02T12:15:00,pkn,3.60
2022-10-02T12:17:00,pkn,9.60
2022-10-02T12:19:00,pkn,2.40
2022-10-02T12:21:00,pkn,1.20
2022-10-02T12:23:00,pkn,1.20
2022-10-02T12:24:00,pkn,1.20
2022-10-02T12:26:00,pkn,1.20
2022-10-02T12:29:00,pkn,2.40
2022-10-02T12:32:00,pkn,1.20
2022-10-02T12:34:00,pkn,1.20
2022-10-02T12:36:00,pkn,1.20
2022-10-02T12:39:00,pkn,1.20
2022-10-02T12:41:00,pkn,1.20
2022-10-02T12:44:00,pkn,1.20
2022-10-02T12:46:00,pkn,2.40
2022-10-02T12:48:00,pkn,9.60
2022-10-02T12:49:00,pkn,1.20
2022-10-02T12:50:00,pkn,8.40
2022-10-02T12:51:00,pkn,4.80
2022-10-02T12:53:00,pkn,8.40
2022-10-02T12:54:00,pkn,2.40
2022-10-02T12:57:00,pkn,1.20
2022-10-02T12:59:00,pkn,1.20
2022-10-02T13:03:00,pkn,1.20
2022-10-02T13:06:00,pkn,1.20
2022-10-02T13:08:00,pkn,1.20
2022-10-02T13:11:00,pkn,1.20
2022-10-02T13:14:00,pkn,1.20
2022-10-02T13:16:00,pkn,1.20
2022-10-02T13:18:00,pkn,1.20
2022-10-02T13:20:00,pkn,1.20
2022-10-02T13:23:00,pkn,1.20
2022-10-02T13:25:00,pkn,1.20
2022-10-02T13:29:00,pkn,1.20
2022-10-02T13:32:00,pkn,7.20
2022-10-02T13:33:00,pkn,6.00
2022-10-02T13:34:00,pkn,9.60
2022-10-02T13:36:00,pkn,9.60
2022-10-02T13:38:00,pkn,7.20
2022-10-02T13:39:00,pkn,1.20
2022-10-02T13:41:00,pkn,1.20
2022-10-02T13:43:00,pkn,1.20
2022-10-02T13:46:00,pkn,1.20
2022-10-02T13:49:00,pkn,1.20
2022-10-02T13:50:00,pkn,1.20
2022-10-02T13:53:00,pkn,1.20
2022-10-02T13:55:00,pkn,1.20
2022-10-02T13:59:00,pkn,1.20
2022-10-02T14:01:00,pkn,1.20
2022-10-02T14:04:00,pkn,1.20
2022-10-02T14:06:00,pkn,1.20
2022-10-02T14:08:00,pkn,3.60
2022-10-02T14:09:00,pkn,1.20
2022-10-02T14:11:00,pkn,2.40
2022-10-02T14:13:00,pkn,3.60
2022-10-02T14:15:00,pkn,2.40
2022-10-02T14:18:00,pkn,1.20
2022-10-02T14:20:00,pkn,1.20
2022-10-02T14:23:00,pkn,1.20
2022-10-02T14:24:00,pkn,2.40
2022-10-02T14:25:00,pkn,4.80
2022-10-02T14:27:00,pkn,9.60
2022-10-02T14:29:00,pkn,8.40
2022-10-02T14:30:00,pkn,6.00
2022-10-02T14:32:00,pkn,3.60
2022-10-02T14:35:00,pkn,1.20
2022-10-02T14:37:00,pkn,1.20
2022-10-02T14:39:00,pkn,1.20
2022-10-02T14:42:00,pkn,1.20
2022-10-02T14:44:00,pkn,1.20
2022-10-02T14:48:00,pkn,1.20
2022-10-02T14:50:00,pkn,1.20
2022-10-02T14:53:00,pkn,1.20
2022-10-02T14:55:00,pkn,1.20
2022-10-02T14:57:00,pkn,1.20
2022-10-02T15:00:00,pkn,1.20
2022-10-02T15:02:00,pkn,1.20
2022-10-02T15:05:00,pkn,1.20
2022-10-02T15:07:00,pkn,1.20
2022-10-02T15:11:00,pkn,1.20
2022-10-02T15:13:00,pkn,1.20
2022-10-02T15:16:00,pkn,1.20
2022-10-02T15:20:00,pkn,1.20
2022-10-02T15:21:00,pkn,1.20
2022-10-02T15:25:00,pkn,1.20
2022-10-02T15:28:00,pkn,9.60
2022-10-02T15:29:00,pkn,4.80
2022-10-02T15:30:00,pkn,3.60
2022-10-02T15:32:00,pkn,9.60
2022-10-02T15:33:00,pkn,4.80
2022-10-02T15:35:00,pkn,3.60
2022-10-02T15:37:00,pkn,1.20
2022-10-02T15:41:00,pkn,1.20
2022-10-02T15:43:00,pkn,1.20
2022-10-02T15:47:00,pkn,1.20
2022-10-02T15:48:00,pkn,1.20
2022-10-02T15:50:00,pkn,1.20
2022-10-02T15:52:00,pkn,1.20
2022-10-02T15:53:00,pkn,1.20
2022-10-02T15:55:00,pkn,1.20
2022-10-02T15:57:00,pkn,1.20
2022-10-02T15:59:00,pkn,1.20
2022-10-02T16:03:00,pkn,1.20
2022-10-02T16:05:00,pkn,1.20
2022-10-02T16:06:00,pkn,1.20
2022-10-02T16:10:00,pkn,1.20
2022-10-02T16:13:00,pkn,1.20
2022-10-02T16:14:00,pkn,1.20
2022-10-02T16:16:00,pkn,1.20
2022-10-02T16:19:00,pkn,1.20
2022-10-02T16:21:00,pkn,1.20
2022-10-02T16:23:00,pkn,1.20
2022-10-02T16:25:00,pkn,1.20
2022-10-02T16:28:00,pkn,1.20
2022-10-02T16:30:00,pkn,1.20
2022-10-02T16:33:00,pkn,1.20
2022-10-02T16:35:00,pkn,1.20
2022-10-02T16:38:00,pkn,1.20
2022-10-02T16:39:00,pkn,1.20
2022-10-02T16:40:00,pkn,1.20
2022-10-02T16:44:00,pkn,3.60
2022-10-02T16:48:00,pkn,1.20
2022-10-02T16:49:00,pkn,3.60
2022-10-02T16:51:00,pkn,9.60
2022-10-02T16:53:00,pkn,9.60
2022-10-02T16:55:00,pkn,8.40
2022-10-02T16:56:00,pkn,3.60
2022-10-02T16:58:00,pkn,1.20
2022-10-02T17:00:00,pkn,2.40
2022-10-02T17:02:00,pkn,1.20
2022-10-02T17:04:00,pkn,1.20
2022-10-02T17:07:00,pkn,1.20
2022-10-02T17:09:00,pkn,3.60
2022-10-02T17:10:00,pkn,1.20
2022-10-02T17:11:00,pkn,1.20
2022-10-02T17:13:00,pkn,2.40
2022-10-02T17:14:00,pkn,1.20
2022-10-02T17:16:00,pkn,3.60
2022-10-02T17:18:00,pkn,3.60
2022-10-02T17:20:00,pkn,3.60
2022-10-02T17:22:00,pkn,3.60
2022-10-02T17:24:00,pkn,6.00
2022-10-02T17:25:00,pkn,1.20
2022-10-02T17:27:00,pkn,1.20
2022-10-02T17:29:00,pkn,2.40
2022-10-02T17:30:00,pkn,1.20
2022-10-02T17:32:00,pkn,1.20
2022-10-02T17:33:00,pkn,1.20
2022-10-02T17:35:00,pkn,1.20
2022-10-02T17:37:00,pkn,1.20
2022-10-02T17:39:00,pkn,2.40
2022-10-02T17:41:00,pkn,1.20
2022-10-02T17:42:00,pkn,1.20
2022-10-02T17:44:00,pkn,1.20
2022-10-02T17:45:00,pkn,1.20
2022-10-02T17:47:00,pkn,1.20
2022-10-02T17:49:00,pkn,1.20
2022-10-02T17:51:00,pkn,1.20
2022-10-02T17:53:00,pkn,1.20
2022-10-02T17:55:00,pkn,2.40
2022-10-02T17:57:00,pkn,1.20
2022-10-02T17:59:00,pkn,6.00
2022-10-02T18:01:00,pkn,8.40
2022-10-02T18:03:00,pkn,10.80
2022-10-02T18:04:00,pkn,4.80
2022-10-02T18:06:00,pkn,8.40
2022-10-02T18:07:00,pkn,6.00
2022-10-02T18:09:00,pkn,1.20
2022-10-02T18:11:00,pkn,1.20
2022-10-02T18:13:00,pkn,2.40
2022-10-02T18:15:00,pkn,1.20
2022-10-02T18:18:00,pkn,1.20
2022-10-02T18:19:00,pkn,1.20
2022-10-02T18:21:00,pkn,1.20
2022-10-02T18:22:00,pkn,1.20
2022-10-02T18:24:00,pkn,1.20
2022-10-02T18:25:00,pkn,1.20
2022-10-02T18:26:00,pkn,1.20
2022-10-02T18:28:00,pkn,6.00
2022-10-02T18:29:00,pkn,3.60
2022-10-02T18:31:00,pkn,9.60
2022-10-02T18:33:00,pkn,10.80
2022-10-02T18:35:00,pkn,9.60
2022-10-02T18:36:00,pkn,3.60
2022-10-02T18:38:00,pkn,9.60
2022-10-02T18:39:00,pkn,4.80
2022-10-02T18:41:00,pkn,6.00
2022-10-02T18:43:00,pkn,1.20
2022-10-02T18:44:00,pkn,1.20
2022-10-02T18:46:00,pkn,1.20
2022-10-02T18:48:00,pkn,1.20
2022-10-02T18:50:00,pkn,1.20
2022-10-02T18:52:00,pkn,1.20
2022-10-02T18:53:00,pkn,1.20
2022-10-02T18:55:00,pkn,1.20
2022-10-02T18:57:00,pkn,1.20
2022-10-02T18:59:00,pkn,1.20
2022-10-02T19:00:00,pkn,1.20
2022-10-02T19:02:00,pkn,2.40
2022-10-02T19:04:00,pkn,9.60
2022-10-02T19:06:00,pkn,10.80
2022-10-02T19:07:00,pkn,3.60
2022-10-02T19:09:00,pkn,10.80
2022-10-02T19:10:00,pkn,4.80
2022-10-02T19:12:00,pkn,4.80
2022-10-02T19:14:00,pkn,2.40
2022-10-02T19:16:00,pkn,1.20
2022-10-02T19:18:00,pkn,1.20
2022-10-02T19:19:00,pkn,1.20
2022-10-02T19:22:00,pkn,2.40
2022-10-02T19:25:00,pkn,2.40
2022-10-02T19:27:00,pkn,1.20
2022-10-02T19:29:00,pkn,1.20
2022-10-02T19:31:00,pkn,2.40
2022-10-02T19:34:00,pkn,2.40
2022-10-02T19:36:00,pkn,1.20
2022-10-02T19:38:00,pkn,1.20
2022-10-02T19:39:00,pkn,1.20
2022-10-02T19:41:00,pkn,2.40
2022-10-02T19:42:00,pkn,1.20
2022-10-02T19:44:00,pkn,1.20
2022-10-02T19:46:00,pkn,1.20
2022-10-02T19:48:00,pkn,2.40
2022-10-02T19:50:00,pkn,1.20
2022-10-02T19:52:00,pkn,8.40
2022-10-02T19:54:00,pkn,8.40
2022-10-02T19:55:00,pkn,6.00
2022-10-02T19:57:00,pkn,9.60
2022-10-02T19:59:00,pkn,6.00
2022-10-02T20:00:00,pkn,1.20
2022-10-02T20:02:00,pkn,1.20
2022-10-02T20:03:00,pkn,1.20
2022-10-02T20:04:00,pkn,1.20
2022-10-02T20:06:00,pkn,1.20
2022-10-02T20:08:00,pkn,2.40
2022-10-02T20:09:00,pkn,2.40
2022-10-02T20:11:00,pkn,3.60
2022-10-02T20:13:00,pkn,2.40
2022-10-02T20:15:00,pkn,1.20
2022-10-02T20:17:00,pkn,2.40
2022-10-02T20:20:00,pkn,2.40
2022-10-02T20:23:00,pkn,2.40
2022-10-02T20:25:00,pkn,2.40
2022-10-02T20:27:00,pkn,1.20
2022-10-02T20:28:00,pkn,1.20
2022-10-02T20:30:00,pkn,1.20
2022-10-02T20:32:00,pkn,2.40
2022-10-02T20:34:00,pkn,2.40
2022-10-02T20:37:00,pkn,2.40
2022-10-02T20:38:00,pkn,1.20
2022-10-02T20:40:00,pkn,1.20
2022-10-02T20:41:00,pkn,3.60
2022-10-02T20:43:00,pkn,4.80
2022-10-02T20:44:00,pkn,2.40
2022-10-02T20:46:00,pkn,1.20
2022-10-02T20:48:00,pkn,2.40
2022-10-02T20:49:00,pkn,2.40
2022-10-02T20:51:00,pkn,7.20
2022-10-02T20:53:00,pkn,10.80
2022-10-02T20:55:00,pkn,10.80
2022-10-02T20:56:00,pkn,6.00
2022-10-02T20:58:00,pkn,7.20
2022-10-02T21:00:00,pkn,2.40
2022-10-02T21:02:00,pkn,2.40
2022-10-02T21:04:00,pkn,2.40
2022-10-02T21:05:00,pkn,1.20
2022-10-02T21:06:00,pkn,1.20
2022-10-02T21:08:00,pkn,2.40
2022-10-02T21:10:00,pkn,2.40
2022-10-02T21:11:00,pkn,1.20
2022-10-02T21:13:00,pkn,2.40
2022-10-02T21:14:00,pkn,1.20
2022-10-02T21:16:00,pkn,2.40
2022-10-02T21:18:00,pkn,2.40
2022-10-02T21:20:00,pkn,2.40
2022-10-02T21:22:00,pkn,2.40
2022-10-02T21:23:00,pkn,1.20
2022-10-02T21:25:00,pkn,2.40
2022-10-02T21:26:00,pkn,1.20
2022-10-02T21:28:00,pkn,2.40
2022-10-02T21:30:00,pkn,2.40
2022-10-02T21:31:00,pkn,1.20
2022-10-02T21:33:00,pkn,2.40
2022-10-02T21:34:00,pkn,1.20
2022-10-02T21:36:00,pkn,2.40
2022-10-02T21:38:00,pkn,2.40
2022-10-02T21:40:00,pkn,3.60
2022-10-02T21:41:00,pkn,1.20
2022-10-02T21:43:00,pkn,2.40
2022-10-02T21:44:00,pkn,1.20
2022-10-02T21:46:00,pkn,2.40
2022-10-02T21:48:00,pkn,2.40
2022-10-02T21:49:00,pkn,1.20
2022-10-02T21:50:00,pkn,1.20
2022-10-02T21:52:00,pkn,2.40
2022-10-02T21:53:00,pkn,1.20
2022-10-02T21:55:00,pkn,2.40
2022-10-02T21:56:00,pkn,2.40
2022-10-02T21:57:00,pkn,6.00
2022-10-02T21:59:00,pkn,9.60
2022-10-02T22:01:00,pkn,10.80
2022-10-02T22:02:00,pkn,6.00
2022-10-02T22:03:00,pkn,4.80
2022-10-02T22:05:00,pkn,2.40
2022-10-02T22:07:00,pkn,2.40
2022-10-02T22:09:00,pkn,2.40
2022-10-02T22:11:00,pkn,2.40
2022-10-02T22:12:00,pkn,1.20
2022-10-02T22:13:00,pkn,1.20
2022-10-02T22:15:00,pkn,2.40
2022-10-02T22:16:00,pkn,1.20
2022-10-02T22:17:00,pkn,1.20
2022-10-02T22:18:00,pkn,1.20
2022-10-02T22:20:00,pkn,2.40
2022-10-02T22:22:00,pkn,2.40
2022-10-02T22:23:00,pkn,1.20
2022-10-02T22:25:00,pkn,2.40
2022-10-02T22:27:00,pkn,2.40
2022-10-02T22:28:00,pkn,1.20
2022-10-02T22:30:00,pkn,2.40
2022-10-02T22:32:00,pkn,1.20
2022-10-02T22:33:00,pkn,1.20
2022-10-02T22:34:00,pkn,2.40
2022-10-02T22:36:00,pkn,2.40
2022-10-02T22:37:00,pkn,1.20
2022-10-02T22:39:00,pkn,2.40
2022-10-02T22:41:00,pkn,2.40
2022-10-02T22:42:00,pkn,1.20
2022-10-02T22:43:00,pkn,1.20
2022-10-02T22:45:00,pkn,2.40
2022-10-02T22:46:00,pkn,1.20
2022-10-02T22:47:00,pkn,1.20
2022-10-02T22:49:00,pkn,1.20
2022-10-02T22:50:00,pkn,1.20
2022-10-02T22:52:00,pkn,2.40
2022-10-02T22:53:00,pkn,1.20
2022-10-02T22:55:00,pkn,4.80
2022-10-02T22:57:00,pkn,10.80
2022-10-02T22:59:00,pkn,10.80
2022-10-02T23:01:00,pkn,10.80
2022-10-02T23:02:00,pkn,4.80
2022-10-02T23:04:00,pkn,9.60
2022-10-02T23:06:00,pkn,10.80
2022-10-02T23:07:00,pkn,4.80
2022-10-02T23:08:00,pkn,2.40
2022-10-02T23:10:00,pkn,2.40
2022-10-02T23:12:00,pkn,1.20
2022-10-02T23:13:00,pkn,1.20
2022-10-02T23:16:00,pkn,2.40
2022-10-02T23:18:00,pkn,2.40
2022-10-02T23:19:00,pkn,1.20
2022-10-02T23:21:00,pkn,4.80
2022-10-02T23:22:00,pkn,2.40
2022-10-02T23:24:00,pkn,1.20
2022-10-02T23:25:00,pkn,3.60
2022-10-02T23:27:00,pkn,9.60
2022-10-02T23:29:00,pkn,10.80
2022-10-02T23:31:00,pkn,8.40
2022-10-02T23:32:00,pkn,6.00
2022-10-02T23:34:00,pkn,10.80
2022-10-02T23:35:00,pkn,4.80
2022-10-02T23:37:00,pkn,7.20
2022-10-02T23:38:00,pkn,1.20
2022-10-02T23:40:00,pkn,1.20
2022-10-02T23:41:00,pkn,1.20
2022-10-02T23:43:00,pkn,2.40
2022-10-02T23:45:00,pkn,1.20
2022-10-02T23:47:00,pkn,1.20
2022-10-02T23:49:00,pkn,2.40
2022-10-02T23:50:00,pkn,1.20
2022-10-02T23:52:00,pkn,1.20
2022-10-02T23:54:00,pkn,2.40
2022-10-02T23:56:00,pkn,2.40
2022-10-02T23:58:00,pkn,1.20
2022-10-02T23:59:00,pkn,1.20
